Regional Weather Roundup
Issued by NWS Cleveland, OH

Home | Current Version | Previous Version | Text Only | Print | Product List | Glossary Off
Versions: 1 2 3 4 5 6 7 8 9 10 11 12 13 14 15 16 17 18 19 20 21 22 23 24 25 26 27 28 29 30 31 32 33 34 35 36 37 38 39 40 41 42 43 44 45 46 47 48 49 50

297
ASUS41 KCLE 250910
RWRCLE
OHIO REGIONAL WEATHER ROUNDUP
NATIONAL WEATHER SERVICE CLEVELAND, OH
500 AM EDT THU MAY 25 2017

NOTE: "FAIR" INDICATES FEW OR NO CLOUDS BELOW 12,000 FEET WITH NO
SIGNIFICANT WEATHER AND/OR OBSTRUCTIONS TO VISIBILITY.

OHZ001>008-015>018-024>027-034-035-043-044-251000-
   NORTHWEST OHIO

CITY           SKY/WX    TMP DP  RH WIND       PRES   REMARKS
DEFIANCE       CLOUDY    59  57  93 NE9       29.40R
FINDLAY        MOCLDY    61  56  83 NE7       29.37S
TOLEDO EXPRESS CLOUDY    58  58 100 NE13      29.41S
TOLEDO EXEC    CLOUDY    60  59  96 NE8       29.42S
LIMA           HVY RAIN  60  59  96 E10       29.35S FOG
$$

OHZ009>014-019>023-028>033-038-089-251000-
   NORTHEAST OHIO

CITY           SKY/WX    TMP DP  RH WIND       PRES   REMARKS
CLE-HOPKINS    CLOUDY    62  56  80 SE10      29.45S
CLE-LAKEFRONT  CLOUDY    62  55  77 SE14G23   29.42F
CUY CO. ARPT   NOT AVBL
LORAIN-ELYRIA    N/A    N/A N/A N/A MISG      29.43S
ASHTABULA      CLOUDY    58  55  90 SE10      29.48F
AKRON-CANTON   CLOUDY    60  55  83 SE10      29.46S
WOOSTER        CLOUDY    59  56  89 SE10      29.45S
MANSFIELD      CLOUDY    59  58  96 E12       29.42S
YOUNGSTOWN     LGT RAIN  57  54  89 SE13      29.49F
$$

OHZ042-051>053-060>062-070>072-077>081-251000-
  SOUTHWEST OHIO

CITY           SKY/WX    TMP DP  RH WIND       PRES   REMARKS
CINC-COVINGTON LGT RAIN  58  57  97 SW9       29.39S FOG
CINC-LUNKEN    LGT RAIN  60  59  96 SW7       29.39S
HAMILTON       LGT RAIN  59  24  26 SW5       29.39S
DAYTON         CLOUDY    58  57  97 SW9       29.37S
WRIGHT-PAT AFB CLOUDY    59  59 100 SW5       29.37R
DAYTON GENERAL CLOUDY    58  57  97 SW6       29.37R
WILMINGTON     CLOUDY    58  58 100 SW8       29.38R
$$

OHZ036-037-039>041-045>050-054>059-063>069-073>076-082>088-251000-
  CENTRAL AND SOUTHEAST OHIO

CITY           SKY/WX    TMP DP  RH WIND       PRES   REMARKS
COLUMBUS       CLOUDY    60  59  96 SE10      29.38F
OSU AIRPORT    CLOUDY    61  58  90 S10       29.38S
BOLTON FIELD   CLOUDY    59  58  96 S10       29.39S
RICKENBACK AFB RAIN      58  58  99 S7        29.38F
NEWARK         LGT RAIN  60  57  89 S5        29.41S FOG
MARION         PTCLDY    61  56  83 SE12      29.38F
LANCASTER      CLOUDY    61  57  87 SE9       29.41S
ZANESVILLE     CLOUDY    60  56  86 S8        29.43F
NEW PHILLY     NOT AVBL
$$




USA.gov is the U.S. government's official web portal to all federal, state and local government web resources and services.